Regional Weather Roundup
Issued by NWS Tiyan, Guam

Home | Current Version | Previous Version | Text Only | Print | Product List | Glossary On
Versions: 1 2 3 4 5 6 7 8 9 10 11 12 13 14 15 16 17 18 19 20 21 22 23 24 25 26 27
000
ASGM40 PGUM 210112
RWRGUM
WEATHER ROUNDUP FOR THE MARIANAS
NATIONAL WEATHER SERVICE TIYAN GU
1100 AM CHST SAT OCT 21 2017

GUZ001>004-210200-
MARIANA ISLANDS-

CITY           SKY/WX    TMP DP  RH WIND       PRES   REMARKS
GUAM AIRPORT   SUNNY     88  79  74 NW9       29.84F HX 102
ANDERSEN AFB   MOSUNNY   84  75  74 N8        29.84F HX  92
ROTA AIRPORT   MOSUNNY   84  77  79 N10       29.83F HX  94
TINIAN AP      PTSUNNY   86  77  74 NE8       29.80F HX  97
SAIPAN AP      MOSUNNY   88  79  74 NE6       29.81F HX 102

$$





USA.gov is the U.S. government's official web portal to all federal, state and local government web resources and services.